DW2058 Weather Reports


time (UTC)temp
C
wind
direction
speed
KPH
gust
KPH
rain 1hr
cm
rain 24hr
cm
rain mn
cm
humidity
%
barometer
mb
20260503185022 29 0 0.0 0.0 0.00 0.00 0.00 39 1023.0
20260503184523 28 0 0.0 0.0 0.00 0.00 0.00 40 1023.0
20260503184022 28 0 0.0 0.0 0.00 0.00 0.00 40 1024.0
20260503183522 28 0 0.0 0.0 0.00 0.00 0.00 40 1024.0
20260503183022 27 0 0.0 0.0 0.00 0.00 0.00 40 1024.0
20260503182522 27 0 0.0 0.0 0.00 0.00 0.00 41 1024.0
20260503181522 27 0 0.0 0.0 0.00 0.00 0.00 41 1024.0
20260503180522 27 0 0.0 0.0 0.00 0.00 0.00 41 1024.0
20260503180022 27 0 0.0 0.0 0.00 0.00 0.00 41 1024.0
20260503175521 27 0 0.0 0.0 0.00 0.00 0.00 42 1024.0
20260503175022 26 0 0.0 0.0 0.00 0.00 0.00 43 1024.0
20260503174521 26 0 0.0 0.0 0.00 0.00 0.00 42 1024.0
20260503174022 26 0 0.0 0.0 0.00 0.00 0.00 43 1024.0
20260503173522 25 0 0.0 0.0 0.00 0.00 0.00 44 1024.0
20260503173022 25 0 0.0 0.0 0.00 0.00 0.00 45 1024.0
20260503172522 25 0 0.0 0.0 0.00 0.00 0.00 46 1024.0
20260503172021 25 0 0.0 0.0 0.00 0.00 0.00 46 1024.0
20260503171522 25 0 0.0 0.0 0.00 0.00 0.00 47 1024.0
20260503170522 24 0 0.0 0.0 0.00 0.00 0.00 52 1024.0
20260503150522 16 0 0.0 0.0 0.00 0.00 0.00 88 1025.0
20260503131021 8 0 0.0 0.0 0.00 0.00 0.00 98 1025.0
20260503130522 8 0 0.0 0.0 0.00 0.00 0.00 98 1025.0
20260503081021 12 0 0.0 0.0 0.00 0.00 0.00 95 1025.0
20260503072521 13 0 0.0 0.0 0.00 0.00 0.00 93 1025.0
20260503072022 13 0 0.0 0.0 0.00 0.00 0.00 93 1025.0
20260503071522 13 0 0.0 0.0 0.00 0.00 0.00 93 1025.0
20260503071021 13 0 0.0 0.0 0.00 0.00 0.00 93 1025.0
20260503070521 13 0 0.0 0.0 0.00 0.00 0.00 93 1025.0
20260503055021 15 0 0.0 0.0 0.00 0.00 0.00 88 1026.0
20260503054521 15 0 0.0 0.0 0.00 0.00 0.00 87 1026.0
20260503054021 15 0 0.0 0.0 0.00 0.00 0.00 87 1025.0
20260503053522 15 0 0.0 0.0 0.00 0.00 0.00 86 1025.0
20260503052521 15 0 0.0 0.0 0.00 0.00 0.00 86 1025.0
20260503051521 15 0 0.0 0.0 0.00 0.00 0.00 85 1025.0
20260503051021 15 0 0.0 0.0 0.00 0.00 0.00 84 1025.0
20260503050521 15 0 0.0 0.0 0.00 0.00 0.00 84 1025.0
20260503050021 15 0 0.0 0.0 0.00 0.00 0.00 84 1025.0
20260503045521 16 0 0.0 0.0 0.00 0.00 0.00 83 1025.0
20260503045021 16 0 0.0 0.0 0.00 0.00 0.00 82 1025.0
20260503044521 16 0 0.0 0.0 0.00 0.00 0.00 82 1025.0
20260503044021 16 0 0.0 0.0 0.00 0.00 0.00 82 1025.0
20260503043521 16 0 0.0 0.0 0.00 0.00 0.00 81 1025.0
20260503043021 16 0 0.0 0.0 0.00 0.00 0.00 81 1025.0
20260503042521 16 0 0.0 0.0 0.00 0.00 0.00 81 1025.0
20260503042021 16 0 0.0 0.0 0.00 0.00 0.00 80 1025.0
20260503041521 16 0 0.0 0.0 0.00 0.00 0.00 80 1025.0
20260503041021 16 0 0.0 0.0 0.00 0.00 0.00 79 1025.0
20260503040521 16 0 0.0 0.0 0.00 0.00 0.00 79 1025.0
20260503040021 17 0 0.0 0.0 0.00 0.00 0.00 78 1025.0
20260503035521 17 0 0.0 0.0 0.00 0.00 0.00 76 1025.0
20260503035021 17 0 0.0 0.0 0.00 0.00 0.00 75 1025.0
20260503034521 17 0 0.0 0.0 0.00 0.00 0.00 75 1025.0
20260503033521 17 0 0.0 0.0 0.00 0.00 0.00 73 1025.0
20260503033021 17 0 0.0 0.0 0.00 0.00 0.00 73 1025.0
20260503032521 17 0 0.0 0.0 0.00 0.00 0.00 72 1025.0
20260503032022 17 0 0.0 0.0 0.00 0.00 0.00 71 1025.0
20260503031521 18 0 0.0 0.0 0.00 0.00 0.00 71 1025.0
20260503030521 18 0 0.0 0.0 0.00 0.00 0.00 70 1025.0
20260503030021 18 0 0.0 0.0 0.00 0.00 0.00 70 1025.0
20260503025522 18 0 0.0 0.0 0.00 0.00 0.00 69 1025.0
20260503025021 18 0 0.0 0.0 0.00 0.00 0.00 69 1025.0
20260503024521 18 0 0.0 0.0 0.00 0.00 0.00 68 1025.0
20260503024021 18 0 0.0 0.0 0.00 0.00 0.00 67 1025.0
20260503023521 18 0 0.0 0.0 0.00 0.00 0.00 67 1025.0
20260503023021 19 0 0.0 0.0 0.00 0.00 0.00 67 1025.0
20260503022021 19 0 0.0 0.0 0.00 0.00 0.00 66 1025.0
20260503021521 19 0 0.0 0.0 0.00 0.00 0.00 65 1025.0
20260503021021 20 0 0.0 0.0 0.00 0.00 0.00 65 1025.0
20260503020521 20 0 0.0 0.0 0.00 0.00 0.00 65 1025.0
20260503015521 20 0 0.0 0.0 0.00 0.00 0.00 64 1025.0
20260503015021 21 0 0.0 0.0 0.00 0.00 0.00 63 1025.0
20260503014521 21 0 0.0 0.0 0.00 0.00 0.00 61 1025.0
20260503014021 21 0 0.0 0.0 0.00 0.00 0.00 60 1025.0
20260503013521 21 0 0.0 0.0 0.00 0.00 0.00 59 1025.0
20260503013021 21 0 0.0 0.0 0.00 0.00 0.00 58 1025.0
20260503012020 21 0 0.0 0.0 0.00 0.00 0.00 56 1025.0
20260503011020 21 0 0.0 0.0 0.00 0.00 0.00 55 1025.0
20260503010521 22 0 0.0 0.0 0.00 0.00 0.00 55 1025.0
20260503010021 22 0 0.0 0.0 0.00 0.00 0.00 54 1025.0
20260503005522 22 0 0.0 0.0 0.00 0.00 0.00 54 1024.0
20260503005020 22 0 0.0 0.0 0.00 0.00 0.00 55 1024.0
20260503004521 22 0 0.0 0.0 0.00 0.00 0.00 55 1024.0
20260503004021 22 0 0.0 0.0 0.00 0.00 0.00 55 1024.0
20260503003521 22 0 0.0 0.0 0.00 0.00 0.00 55 1024.0
20260503001520 22 0 0.0 0.0 0.00 0.00 0.00 55 1024.0
20260503001020 22 0 0.0 0.0 0.00 0.00 0.00 55 1024.0
20260503000521 22 0 0.0 0.0 0.00 0.00 0.00 55 1024.0
20260503000020 22 0 0.0 0.0 0.00 0.00 0.00 55 1024.0
20260502235021 22 0 0.0 0.0 0.00 0.00 0.00 54 1025.0
20260502234520 22 0 0.0 0.0 0.00 0.00 0.00 54 1025.0
20260502234021 22 0 0.0 0.0 0.00 0.00 0.00 54 1025.0
20260502233521 22 0 0.0 0.0 0.00 0.00 0.00 54 1025.0
20260502233021 22 0 0.0 0.0 0.00 0.00 0.00 54 1025.0
20260502232021 22 0 0.0 0.0 0.00 0.00 0.00 52 1025.0
20260502231520 22 0 0.0 0.0 0.00 0.00 0.00 52 1025.0
20260502231022 22 0 0.0 0.0 0.00 0.00 0.00 53 1025.0
20260502230520 22 0 0.0 0.0 0.00 0.00 0.00 53 1025.0
20260502225520 23 0 0.0 0.0 0.00 0.00 0.00 53 1025.0
20260502224520 22 0 0.0 0.0 0.00 0.00 0.00 53 1025.0
20260502224021 22 0 0.0 0.0 0.00 0.00 0.00 53 1026.0
20260502223521 22 0 0.0 0.0 0.00 0.00 0.00 53 1026.0
20260502223021 22 0 0.0 0.0 0.00 0.00 0.00 55 1026.0
20260502221521 21 0 0.0 0.0 0.00 0.00 0.00 54 1025.0
20260502221021 21 0 0.0 0.0 0.00 0.00 0.00 54 1026.0
20260502220521 21 0 0.0 0.0 0.00 0.00 0.00 55 1026.0
20260502220021 21 0 0.0 0.0 0.00 0.00 0.00 55 1026.0
20260502215021 22 0 0.0 0.0 0.00 0.00 0.00 56 1026.0
20260502213021 20 0 0.0 0.0 0.00 0.00 0.00 57 1026.0
20260502212020 20 0 0.0 0.0 0.00 0.00 0.00 58 1026.0
20260502211520 20 0 0.0 0.0 0.00 0.00 0.00 57 1026.0
20260502211021 20 0 0.0 0.0 0.00 0.00 0.00 57 1027.0
20260502210521 20 0 0.0 0.0 0.00 0.00 0.00 57 1027.0
20260502210020 20 0 0.0 0.0 0.00 0.00 0.00 57 1027.0
20260502205520 20 0 0.0 0.0 0.00 0.00 0.00 57 1027.0
20260502205021 20 0 0.0 0.0 0.00 0.00 0.00 58 1027.0
20260502204521 20 0 0.0 0.0 0.00 0.00 0.00 58 1027.0
20260502204021 20 0 0.0 0.0 0.00 0.00 0.00 58 1027.0
20260502203521 20 0 0.0 0.0 0.00 0.00 0.00 59 1027.0
20260502203021 20 0 0.0 0.0 0.00 0.00 0.00 60 1027.0
20260502202020 20 0 0.0 0.0 0.00 0.00 0.00 63 1028.0
20260502201521 19 0 0.0 0.0 0.00 0.00 0.00 62 1028.0
20260502201021 19 0 0.0 0.0 0.00 0.00 0.00 63 1028.0
20260502200520 18 0 0.0 0.0 0.00 0.00 0.00 64 1028.0
20260502200021 18 0 0.0 0.0 0.00 0.00 0.00 65 1028.0
20260502195521 18 0 0.0 0.0 0.00 0.00 0.00 66 1028.0
20260502195021 17 0 0.0 0.0 0.00 0.00 0.00 68 1028.0
20260502194521 17 0 0.0 0.0 0.00 0.00 0.00 69 1028.0
20260502194020 17 0 0.0 0.0 0.00 0.00 0.00 69 1028.0
20260502193520 17 0 0.0 0.0 0.00 0.00 0.00 70 1028.0
20260502193021 17 0 0.0 0.0 0.00 0.00 0.00 72 1028.0
20260502192520 16 0 0.0 0.0 0.00 0.00 0.00 73 1028.0
20260502192020 16 0 0.0 0.0 0.00 0.00 0.00 74 1028.0
20260502191520 15 0 0.0 0.0 0.00 0.00 0.00 75 1028.0
20260502191021 15 0 0.0 0.0 0.00 0.00 0.00 76 1029.0
20260502190521 15 0 0.0 0.0 0.00 0.00 0.00 77 1029.0
20260502190021 15 0 0.0 0.0 0.00 0.00 0.00 78 1029.0
20260502185520 15 0 0.0 0.0 0.00 0.00 0.00 80 1029.0